Time,TemperatureF,DewpointF,PressureIn,WindDirection,WindDirectionDegrees,WindSpeedMPH,WindSpeedGustMPH,Humidity,HourlyPrecipIn,Conditions,Clouds,dailyrainin,SoftwareType,DateUTC
2013-09-22 00:01:00,77.0,67.3,29.91,ESE,112,0.0,0.0,72,0.00,,---,0.00,VWS V14.01,2013-09-22 04:01:00,
2013-09-22 00:03:00,77.0,67.3,29.88,ESE,112,0.0,0.0,72,0.00,,---,0.00,VWS V14.01,2013-09-22 04:03:00,
2013-09-22 00:07:00,77.0,67.7,29.88,ESE,112,0.0,0.0,73,0.00,,---,0.00,VWS V14.01,2013-09-22 04:07:00,
2013-09-22 00:13:00,77.0,67.7,29.88,ESE,112,0.0,0.0,73,0.00,,---,0.00,VWS V14.01,2013-09-22 04:13:00,
2013-09-22 00:20:00,77.0,67.7,29.88,ESE,112,0.0,0.0,73,0.00,,---,0.00,VWS V14.01,2013-09-22 04:20:00,
2013-09-22 00:21:00,77.0,67.7,29.88,ESE,112,0.0,0.0,73,0.00,,---,0.00,VWS V14.01,2013-09-22 04:21:00,
2013-09-22 00:24:00,77.0,67.7,29.88,ESE,112,0.0,0.0,73,0.00,,---,0.00,VWS V14.01,2013-09-22 04:24:00,
2013-09-22 00:29:00,77.0,68.1,29.88,ESE,112,0.0,0.0,74,0.00,,---,0.00,VWS V14.01,2013-09-22 04:29:00,
2013-09-22 00:35:00,77.0,68.1,29.88,East,90,0.0,0.0,74,0.00,,---,0.00,VWS V14.01,2013-09-22 04:35:00,
2013-09-22 00:40:00,76.8,67.9,29.88,East,90,0.0,0.0,74,0.00,,---,0.00,VWS V14.01,2013-09-22 04:40:00,
2013-09-22 00:45:00,76.8,68.3,29.88,East,90,0.0,0.0,75,0.00,,---,0.00,VWS V14.01,2013-09-22 04:45:00,
2013-09-22 00:50:00,76.8,68.3,29.88,SE,135,0.0,0.0,75,0.00,,---,0.00,VWS V14.01,2013-09-22 04:50:00,
2013-09-22 00:55:00,76.8,68.3,29.88,SE,135,0.0,0.0,75,0.00,,---,0.00,VWS V14.01,2013-09-22 04:55:00,
2013-09-22 01:00:00,76.6,68.1,29.88,SE,135,0.0,0.0,75,0.00,,---,0.00,VWS V14.01,2013-09-22 05:00:00,
2013-09-22 01:06:00,76.6,68.5,29.88,SE,135,0.0,0.0,76,0.00,,---,0.00,VWS V14.01,2013-09-22 05:06:00,
2013-09-22 01:11:00,76.6,68.5,29.88,SE,135,0.0,0.0,76,0.00,,---,0.00,VWS V14.01,2013-09-22 05:11:00,
2013-09-22 01:16:00,76.6,68.5,29.88,SE,135,0.0,0.0,76,0.00,,---,0.00,VWS V14.01,2013-09-22 05:16:00,
2013-09-22 01:22:00,76.5,68.3,29.88,SE,135,0.0,0.0,76,0.00,,---,0.00,VWS V14.01,2013-09-22 05:22:00,
2013-09-22 01:28:00,76.5,68.3,29.88,SE,135,0.0,0.0,76,0.00,,---,0.00,VWS V14.01,2013-09-22 05:28:00,
2013-09-22 01:33:00,76.5,68.7,29.88,SE,135,0.0,0.0,77,0.00,,---,0.00,VWS V14.01,2013-09-22 05:33:00,
2013-09-22 01:38:00,76.5,68.7,29.88,SE,135,0.0,0.0,77,0.00,,---,0.00,VWS V14.01,2013-09-22 05:38:00,
2013-09-22 01:44:00,76.5,68.7,29.88,SE,135,0.0,0.0,77,0.00,,---,0.00,VWS V14.01,2013-09-22 05:44:00,
2013-09-22 01:49:00,76.5,68.7,29.88,East,90,0.0,0.0,77,0.00,,---,0.00,VWS V14.01,2013-09-22 05:49:00,
2013-09-22 01:55:00,76.5,68.7,29.88,East,90,0.0,0.0,77,0.00,,---,0.00,VWS V14.01,2013-09-22 05:55:00,
2013-09-22 02:00:00,76.5,69.1,29.88,East,90,0.0,0.0,78,0.00,,---,0.00,VWS V14.01,2013-09-22 06:00:00,
2013-09-22 02:05:00,76.5,69.1,29.88,East,90,0.0,0.0,78,0.00,,---,0.00,VWS V14.01,2013-09-22 06:05:00,
2013-09-22 02:10:00,76.5,69.1,29.88,East,90,0.0,0.0,78,0.00,,---,0.00,VWS V14.01,2013-09-22 06:10:00,
2013-09-22 02:15:00,76.5,69.1,29.88,East,90,0.0,0.0,78,0.00,,---,0.00,VWS V14.01,2013-09-22 06:15:00,
2013-09-22 02:20:00,76.5,69.1,29.88,ESE,112,0.0,0.0,78,0.00,,---,0.00,VWS V14.01,2013-09-22 06:20:00,
2013-09-22 02:25:00,76.5,69.1,29.88,ESE,112,0.0,0.0,78,0.00,,---,0.00,VWS V14.01,2013-09-22 06:25:00,
2013-09-22 02:32:00,76.3,68.9,29.88,ESE,112,0.0,0.0,78,0.00,,---,0.00,VWS V14.01,2013-09-22 06:32:00,
2013-09-22 02:37:00,76.3,68.9,29.88,ESE,112,0.0,0.0,78,0.00,,---,0.00,VWS V14.01,2013-09-22 06:37:00,
2013-09-22 02:42:00,76.3,69.3,29.88,ESE,112,0.0,0.0,79,0.00,,---,0.00,VWS V14.01,2013-09-22 06:42:00,
2013-09-22 02:47:00,76.3,69.3,29.88,ESE,112,0.0,0.0,79,0.00,,---,0.00,VWS V14.01,2013-09-22 06:47:00,
2013-09-22 02:52:00,76.3,69.3,29.88,East,90,0.0,0.0,79,0.00,,---,0.00,VWS V14.01,2013-09-22 06:52:00,
2013-09-22 02:57:00,76.3,69.3,29.88,ESE,112,0.0,0.0,79,0.00,,---,0.00,VWS V14.01,2013-09-22 06:57:00,
2013-09-22 03:02:00,76.1,69.1,29.85,East,90,0.0,0.0,79,0.00,,---,0.00,VWS V14.01,2013-09-22 07:02:00,
2013-09-22 03:07:00,76.1,69.1,29.85,East,90,0.0,0.0,79,0.00,,---,0.00,VWS V14.01,2013-09-22 07:07:00,
2013-09-22 03:12:00,76.1,69.1,29.85,East,90,0.0,0.0,79,0.00,,---,0.00,VWS V14.01,2013-09-22 07:12:00,
2013-09-22 03:17:00,75.9,68.9,29.85,East,90,0.0,0.0,79,0.00,,---,0.00,VWS V14.01,2013-09-22 07:17:00,
2013-09-22 03:22:00,75.9,68.9,29.85,East,90,0.0,0.0,79,0.00,,---,0.00,VWS V14.01,2013-09-22 07:22:00,
2013-09-22 03:27:00,75.9,68.9,29.85,East,90,0.0,0.0,79,0.00,,---,0.00,VWS V14.01,2013-09-22 07:27:00,
2013-09-22 03:32:00,75.9,68.9,29.85,East,90,0.0,0.0,79,0.00,,---,0.00,VWS V14.01,2013-09-22 07:32:00,
2013-09-22 03:37:00,75.9,69.3,29.85,East,90,0.0,0.0,80,0.00,,---,0.00,VWS V14.01,2013-09-22 07:37:00,
2013-09-22 03:42:00,75.9,69.3,29.85,SE,135,0.0,0.0,80,0.00,,---,0.00,VWS V14.01,2013-09-22 07:42:00,
2013-09-22 03:48:00,75.9,69.3,29.85,SE,135,0.0,0.0,80,0.00,,---,0.00,VWS V14.01,2013-09-22 07:48:00,
2013-09-22 03:53:00,75.7,69.1,29.85,SE,135,0.0,0.0,80,0.00,,---,0.00,VWS V14.01,2013-09-22 07:53:00,
2013-09-22 03:58:00,75.7,69.1,29.85,SE,135,0.0,0.0,80,0.00,,---,0.00,VWS V14.01,2013-09-22 07:58:00,
2013-09-22 04:03:00,75.7,69.1,29.85,ESE,112,0.0,0.0,80,0.00,,---,0.00,VWS V14.01,2013-09-22 08:03:00,
2013-09-22 04:08:00,75.7,69.1,29.85,ESE,112,0.0,0.0,80,0.00,,---,0.00,VWS V14.01,2013-09-22 08:08:00,
2013-09-22 04:13:00,75.7,69.1,29.85,ESE,112,0.0,0.0,80,0.00,,---,0.00,VWS V14.01,2013-09-22 08:13:00,
2013-09-22 04:18:00,75.6,69.0,29.88,East,90,0.0,0.0,80,0.00,,---,0.00,VWS V14.01,2013-09-22 08:18:00,
2013-09-22 04:23:00,75.6,69.0,29.88,East,90,0.0,0.0,80,0.00,,---,0.00,VWS V14.01,2013-09-22 08:23:00,
2013-09-22 04:28:00,75.6,69.0,29.88,NE,45,0.0,0.0,80,0.00,,---,0.00,VWS V14.01,2013-09-22 08:28:00,
2013-09-22 04:35:00,75.6,69.3,29.85,NNE,22,2.0,2.2,81,0.00,,---,0.00,VWS V14.01,2013-09-22 08:35:00,
2013-09-22 04:40:00,75.6,69.3,29.85,East,90,0.0,0.0,81,0.00,,---,0.00,VWS V14.01,2013-09-22 08:40:00,
2013-09-22 04:45:00,75.6,69.3,29.85,East,90,0.0,0.0,81,0.00,,---,0.00,VWS V14.01,2013-09-22 08:45:00,
2013-09-22 04:50:00,75.6,69.3,29.85,ENE,68,0.0,1.3,81,0.00,,---,0.00,VWS V14.01,2013-09-22 08:50:00,
2013-09-22 04:55:00,75.6,69.3,29.85,ENE,68,1.6,1.6,81,0.00,,---,0.00,VWS V14.01,2013-09-22 08:55:00,
2013-09-22 05:00:00,75.6,69.3,29.85,ESE,112,0.0,3.1,81,0.00,,---,0.00,VWS V14.01,2013-09-22 09:00:00,
2013-09-22 05:05:00,75.6,69.7,29.85,ESE,112,0.0,0.0,82,0.00,,---,0.00,VWS V14.01,2013-09-22 09:05:00,
2013-09-22 05:12:00,75.6,69.7,29.85,ESE,112,0.9,1.6,82,0.00,,---,0.00,VWS V14.01,2013-09-22 09:12:00,
2013-09-22 05:18:00,75.6,69.7,29.85,ESE,112,1.3,1.3,82,0.00,,---,0.00,VWS V14.01,2013-09-22 09:18:00,
2013-09-22 05:23:00,75.6,69.7,29.85,SE,135,0.0,0.0,82,0.00,,---,0.00,VWS V14.01,2013-09-22 09:23:00,
2013-09-22 05:28:00,75.6,69.7,29.85,SE,135,0.0,0.0,82,0.00,,---,0.00,VWS V14.01,2013-09-22 09:28:00,
2013-09-22 05:33:00,75.6,69.7,29.85,South,180,0.0,0.0,82,0.00,,---,0.00,VWS V14.01,2013-09-22 09:33:00,
2013-09-22 05:38:00,75.6,69.7,29.85,SSE,158,0.0,0.0,82,0.00,,---,0.00,VWS V14.01,2013-09-22 09:38:00,
2013-09-22 05:43:00,75.6,69.7,29.85,ESE,112,0.0,0.0,82,0.00,,---,0.00,VWS V14.01,2013-09-22 09:43:00,
2013-09-22 05:48:00,75.6,69.7,29.85,ESE,112,0.0,0.0,82,0.00,,---,0.00,VWS V14.01,2013-09-22 09:48:00,
2013-09-22 05:53:00,75.6,69.7,29.85,ESE,112,0.0,0.0,82,0.00,,---,0.00,VWS V14.01,2013-09-22 09:53:00,
2013-09-22 05:58:00,75.4,69.5,29.85,ESE,112,0.0,0.0,82,0.00,,---,0.00,VWS V14.01,2013-09-22 09:58:00,
2013-09-22 06:05:00,75.4,69.5,29.88,ESE,112,0.0,0.0,82,0.00,,---,0.00,VWS V14.01,2013-09-22 10:05:00,
2013-09-22 06:10:00,75.4,69.5,29.88,ESE,112,0.0,0.0,82,0.00,,---,0.00,VWS V14.01,2013-09-22 10:10:00,
2013-09-22 06:17:00,75.2,69.3,29.85,ESE,112,0.9,0.9,82,0.00,,---,0.00,VWS V14.01,2013-09-22 10:17:00,
2013-09-22 06:22:00,75.2,69.3,29.85,ESE,112,0.9,0.9,82,0.00,,---,0.00,VWS V14.01,2013-09-22 10:22:00,
2013-09-22 06:27:00,75.2,69.3,29.85,ESE,112,0.0,1.3,82,0.00,,---,0.00,VWS V14.01,2013-09-22 10:27:00,
2013-09-22 06:32:00,75.2,69.3,29.85,SE,135,0.0,0.0,82,0.00,,---,0.00,VWS V14.01,2013-09-22 10:32:00,
2013-09-22 06:37:00,75.2,69.3,29.85,SE,135,1.1,1.1,82,0.00,,---,0.00,VWS V14.01,2013-09-22 10:37:00,
2013-09-22 06:44:00,75.2,69.3,29.85,East,90,0.0,1.3,82,0.00,,---,0.00,VWS V14.01,2013-09-22 10:44:00,
2013-09-22 06:50:00,75.2,69.7,29.85,East,90,0.0,1.1,83,0.00,,---,0.00,VWS V14.01,2013-09-22 10:50:00,
2013-09-22 06:59:00,75.2,69.7,29.85,East,90,0.0,0.0,83,0.00,,---,0.00,VWS V14.01,2013-09-22 10:59:00,
2013-09-22 07:05:00,75.2,69.7,29.88,East,90,0.0,0.0,83,0.00,,---,0.00,VWS V14.01,2013-09-22 11:05:00,
2013-09-22 07:10:00,75.0,69.5,29.88,ESE,112,1.3,1.3,83,0.00,,---,0.00,VWS V14.01,2013-09-22 11:10:00,
2013-09-22 07:15:00,75.2,69.7,29.88,East,90,0.0,0.9,83,0.00,,---,0.00,VWS V14.01,2013-09-22 11:15:00,
2013-09-22 07:20:00,75.2,69.7,29.85,ESE,112,0.0,0.0,83,0.00,,---,0.00,VWS V14.01,2013-09-22 11:20:00,
2013-09-22 07:25:00,75.2,69.7,29.85,SE,135,0.0,0.0,83,0.00,,---,0.00,VWS V14.01,2013-09-22 11:25:00,
2013-09-22 07:30:00,75.2,70.0,29.85,ESE,112,0.0,1.6,84,0.00,,---,0.00,VWS V14.01,2013-09-22 11:30:00,
2013-09-22 07:35:00,75.4,70.2,29.88,ESE,112,0.0,3.8,84,0.00,,---,0.00,VWS V14.01,2013-09-22 11:35:00,
2013-09-22 07:40:00,75.4,70.2,29.88,ESE,112,0.0,0.0,84,0.00,,---,0.00,VWS V14.01,2013-09-22 11:40:00,
2013-09-22 07:45:00,75.4,70.2,29.88,ESE,112,0.0,2.0,84,0.00,,---,0.00,VWS V14.01,2013-09-22 11:45:00,
2013-09-22 07:50:00,75.4,70.2,29.88,ESE,112,0.0,1.1,84,0.00,,---,0.00,VWS V14.01,2013-09-22 11:50:00,
2013-09-22 07:57:00,75.6,70.4,29.88,ESE,112,1.3,2.0,84,0.00,,---,0.00,VWS V14.01,2013-09-22 11:57:00,
2013-09-22 08:03:00,75.7,70.6,29.88,ESE,112,2.2,2.2,84,0.00,,---,0.00,VWS V14.01,2013-09-22 12:03:00,
2013-09-22 08:08:00,75.7,70.6,29.88,SE,135,0.0,0.0,84,0.00,,---,0.00,VWS V14.01,2013-09-22 12:08:00,
2013-09-22 08:13:00,75.9,70.7,29.88,SE,135,0.0,3.4,84,0.00,,---,0.00,VWS V14.01,2013-09-22 12:13:00,
2013-09-22 08:18:00,76.1,71.3,29.88,SE,135,0.0,0.9,85,0.00,,---,0.00,VWS V14.01,2013-09-22 12:18:00,
2013-09-22 08:23:00,76.3,71.4,29.88,SE,135,0.0,2.5,85,0.00,,---,0.00,VWS V14.01,2013-09-22 12:23:00,
2013-09-22 08:28:00,76.3,71.4,29.88,East,90,2.5,2.7,85,0.00,,---,0.00,VWS V14.01,2013-09-22 12:28:00,
2013-09-22 08:34:00,76.6,71.8,29.88,East,90,0.0,2.9,85,0.00,,---,0.00,VWS V14.01,2013-09-22 12:34:00,
2013-09-22 08:40:00,76.8,72.0,29.88,SE,135,0.9,3.6,85,0.00,,---,0.00,VWS V14.01,2013-09-22 12:40:00,
2013-09-22 08:48:00,77.2,72.3,29.88,SSE,158,1.3,1.3,85,0.00,,---,0.00,VWS V14.01,2013-09-22 12:48:00,
2013-09-22 08:53:00,77.5,72.7,29.88,SSE,158,1.3,2.2,85,0.00,,---,0.00,VWS V14.01,2013-09-22 12:53:00,
2013-09-22 08:59:00,78.1,73.2,29.88,SSE,158,3.6,4.0,85,0.00,,---,0.00,VWS V14.01,2013-09-22 12:59:00,
2013-09-22 09:05:00,78.4,73.6,29.88,SW,225,2.0,5.6,85,0.00,,---,0.00,VWS V14.01,2013-09-22 13:05:00,
2013-09-22 09:10:00,78.8,73.6,29.88,SE,135,1.6,1.6,84,0.00,,---,0.00,VWS V14.01,2013-09-22 13:10:00,
2013-09-22 09:15:00,79.3,74.1,29.88,East,90,0.9,2.2,84,0.00,,---,0.00,VWS V14.01,2013-09-22 13:15:00,
2013-09-22 09:20:00,79.7,74.4,29.88,ESE,112,3.4,3.6,84,0.00,,---,0.00,VWS V14.01,2013-09-22 13:20:00,
2013-09-22 09:25:00,80.2,74.6,29.88,SW,225,4.0,4.0,83,0.00,,---,0.00,VWS V14.01,2013-09-22 13:25:00,
2013-09-22 09:30:00,80.6,74.6,29.88,SW,225,4.0,4.0,82,0.00,,---,0.00,VWS V14.01,2013-09-22 13:30:00,
2013-09-22 09:36:00,81.1,74.4,29.91,SW,225,4.0,4.0,80,0.00,,---,0.00,VWS V14.01,2013-09-22 13:36:00,
2013-09-22 09:41:00,81.5,74.0,29.91,SW,225,4.0,4.0,78,0.00,,---,0.00,VWS V14.01,2013-09-22 13:41:00,
2013-09-22 09:48:00,82.4,74.5,29.91,SW,225,4.0,4.0,77,0.00,,---,0.00,VWS V14.01,2013-09-22 13:48:00,
2013-09-22 09:54:00,82.8,74.4,29.91,SSE,158,3.1,4.9,76,0.00,,---,0.00,VWS V14.01,2013-09-22 13:54:00,
2013-09-22 09:59:00,83.3,74.9,29.91,SE,135,4.3,4.3,76,0.00,,---,0.00,VWS V14.01,2013-09-22 13:59:00,
2013-09-22 10:05:00,83.5,74.7,29.91,SSW,202,4.5,4.5,75,0.00,,---,0.00,VWS V14.01,2013-09-22 14:05:00,
2013-09-22 10:10:00,84.2,72.5,29.91,SSW,202,5.6,9.0,68,0.00,,---,0.00,VWS V14.01,2013-09-22 14:10:00,
2013-09-22 10:15:00,84.7,72.6,29.91,ESE,112,6.5,6.5,67,0.00,,---,0.00,VWS V14.01,2013-09-22 14:15:00,
2013-09-22 10:20:00,84.7,70.8,29.88,ESE,112,4.9,4.9,63,0.00,,---,0.00,VWS V14.01,2013-09-22 14:20:00,
2013-09-22 10:26:00,85.3,70.3,29.88,South,180,4.3,8.5,61,0.00,,---,0.00,VWS V14.01,2013-09-22 14:26:00,
2013-09-22 10:31:00,85.6,69.7,29.88,SW,225,4.3,4.3,59,0.00,,---,0.00,VWS V14.01,2013-09-22 14:31:00,
2013-09-22 10:36:00,85.6,68.2,29.91,SSE,158,5.4,5.8,56,0.00,,---,0.00,VWS V14.01,2013-09-22 14:36:00,
2013-09-22 10:41:00,85.8,67.8,29.91,South,180,7.8,8.1,55,0.00,,---,0.00,VWS V14.01,2013-09-22 14:41:00,
2013-09-22 10:46:00,86.2,68.1,29.91,SE,135,2.7,6.3,55,0.00,,---,0.00,VWS V14.01,2013-09-22 14:46:00,
2013-09-22 10:51:00,86.4,68.3,29.91,South,180,3.4,3.4,55,0.00,,---,0.00,VWS V14.01,2013-09-22 14:51:00,
2013-09-22 10:56:00,86.9,68.3,29.91,South,180,3.4,3.4,54,0.00,,---,0.00,VWS V14.01,2013-09-22 14:56:00,
2013-09-22 11:01:00,87.1,67.9,29.91,South,180,3.4,3.4,53,0.00,,---,0.00,VWS V14.01,2013-09-22 15:01:00,
2013-09-22 11:06:00,86.5,66.8,29.91,South,180,3.4,3.4,52,0.00,,---,0.00,VWS V14.01,2013-09-22 15:06:00,
2013-09-22 11:11:00,86.2,66.5,29.91,South,180,3.4,3.4,52,0.00,,---,0.00,VWS V14.01,2013-09-22 15:11:00,
2013-09-22 11:16:00,85.6,66.0,29.91,South,180,3.4,3.4,52,0.00,,---,0.00,VWS V14.01,2013-09-22 15:16:00,
2013-09-22 11:21:00,85.5,65.8,29.94,South,180,3.4,3.4,52,0.00,,---,0.00,VWS V14.01,2013-09-22 15:21:00,
2013-09-22 11:26:00,86.0,66.9,29.94,South,180,3.4,3.4,53,0.00,,---,0.00,VWS V14.01,2013-09-22 15:26:00,
2013-09-22 11:31:00,86.5,67.4,29.94,SE,135,5.6,7.4,53,0.00,,---,0.00,VWS V14.01,2013-09-22 15:31:00,
2013-09-22 11:36:00,86.9,67.2,29.91,South,180,3.4,4.7,52,0.00,,---,0.00,VWS V14.01,2013-09-22 15:36:00,
2013-09-22 11:41:00,87.1,66.8,29.91,SSW,202,6.0,9.6,51,0.00,,---,0.00,VWS V14.01,2013-09-22 15:41:00,
2013-09-22 11:46:00,86.7,66.4,29.91,South,180,1.6,9.2,51,0.00,,---,0.00,VWS V14.01,2013-09-22 15:46:00,
2013-09-22 11:51:00,86.9,66.6,29.91,SSW,202,3.1,3.1,51,0.00,,---,0.00,VWS V14.01,2013-09-22 15:51:00,
2013-09-22 11:58:00,87.1,66.2,29.91,SW,225,9.8,9.8,50,0.00,,---,0.00,VWS V14.01,2013-09-22 15:58:00,
2013-09-22 12:03:00,87.1,65.6,29.91,SSW,202,5.4,6.5,49,0.00,,---,0.00,VWS V14.01,2013-09-22 16:03:00,
2013-09-22 12:08:00,87.1,65.6,29.91,SW,225,3.8,8.7,49,0.00,,---,0.00,VWS V14.01,2013-09-22 16:08:00,
2013-09-22 12:13:00,87.4,65.9,29.91,SSW,202,7.4,7.4,49,0.00,,---,0.00,VWS V14.01,2013-09-22 16:13:00,
2013-09-22 12:18:00,87.6,65.5,29.91,South,180,4.7,5.8,48,0.00,,---,0.00,VWS V14.01,2013-09-22 16:18:00,
2013-09-22 12:23:00,87.6,64.3,29.91,SSW,202,3.4,6.5,46,0.00,,---,0.00,VWS V14.01,2013-09-22 16:23:00,
2013-09-22 12:28:00,87.6,64.9,29.91,SW,225,3.6,4.0,47,0.00,,---,0.00,VWS V14.01,2013-09-22 16:28:00,
2013-09-22 12:33:00,87.8,64.5,29.91,SW,225,3.6,3.6,46,0.00,,---,0.00,VWS V14.01,2013-09-22 16:33:00,
2013-09-22 12:40:00,88.3,64.3,29.91,SSW,202,7.2,7.2,45,0.00,,---,0.00,VWS V14.01,2013-09-22 16:40:00,
2013-09-22 12:45:00,88.3,64.9,29.91,South,180,4.0,4.0,46,0.00,,---,0.00,VWS V14.01,2013-09-22 16:45:00,
2013-09-22 12:50:00,88.7,65.3,29.91,NNW,338,2.9,3.1,46,0.00,,---,0.00,VWS V14.01,2013-09-22 16:50:00,
2013-09-22 12:55:00,88.9,64.8,29.91,SSW,202,5.4,9.6,45,0.00,,---,0.00,VWS V14.01,2013-09-22 16:55:00,
2013-09-22 13:00:00,88.7,64.0,29.91,SSW,202,3.1,6.5,44,0.00,,---,0.00,VWS V14.01,2013-09-22 17:00:00,
2013-09-22 13:05:00,89.1,64.3,29.91,South,180,7.8,7.8,44,0.00,,---,0.00,VWS V14.01,2013-09-22 17:05:00,
2013-09-22 13:10:00,89.2,63.8,29.91,SSE,158,6.3,7.4,43,0.00,,---,0.00,VWS V14.01,2013-09-22 17:10:00,
2013-09-22 13:15:00,89.1,64.3,29.91,WSW,248,3.8,3.8,44,0.00,,---,0.00,VWS V14.01,2013-09-22 17:15:00,
2013-09-22 13:20:00,89.4,65.3,29.91,SSW,202,5.8,5.8,45,0.00,,---,0.00,VWS V14.01,2013-09-22 17:20:00,
2013-09-22 13:25:00,89.6,64.8,29.91,SE,135,2.2,4.0,44,0.00,,---,0.00,VWS V14.01,2013-09-22 17:25:00,
2013-09-22 13:32:00,89.8,65.0,29.91,SE,135,5.8,5.8,44,0.00,,---,0.00,VWS V14.01,2013-09-22 17:32:00,
2013-09-22 13:37:00,90.1,65.3,29.91,SW,225,2.9,2.9,44,0.00,,---,0.00,VWS V14.01,2013-09-22 17:37:00,
2013-09-22 13:42:00,90.1,64.7,29.91,SW,225,2.9,2.9,43,0.00,,---,0.00,VWS V14.01,2013-09-22 17:42:00,
2013-09-22 13:47:00,90.3,64.1,29.91,South,180,5.6,5.6,42,0.00,,---,0.00,VWS V14.01,2013-09-22 17:47:00,
2013-09-22 13:53:00,90.1,64.0,29.91,South,180,5.6,5.6,42,0.00,,---,0.00,VWS V14.01,2013-09-22 17:53:00,
2013-09-22 13:59:00,90.1,63.3,29.91,West,270,10.1,10.1,41,0.00,,---,0.00,VWS V14.01,2013-09-22 17:59:00,
2013-09-22 14:04:00,89.8,63.0,29.91,SSW,202,4.9,5.8,41,0.00,,---,0.00,VWS V14.01,2013-09-22 18:04:00,
2013-09-22 14:10:00,89.8,63.7,29.91,SW,225,6.3,6.3,42,0.00,,---,0.00,VWS V14.01,2013-09-22 18:10:00,
2013-09-22 14:16:00,89.6,63.5,29.91,SSW,202,5.6,7.6,42,0.00,,---,0.00,VWS V14.01,2013-09-22 18:16:00,
2013-09-22 14:22:00,90.0,63.8,29.91,SSW,202,7.8,7.8,42,0.00,,---,0.00,VWS V14.01,2013-09-22 18:22:00,
2013-09-22 14:27:00,90.0,63.8,29.91,ESE,112,7.2,10.7,42,0.00,,---,0.00,VWS V14.01,2013-09-22 18:27:00,
2013-09-22 14:32:00,90.0,63.8,29.91,SW,225,2.5,5.4,42,0.00,,---,0.00,VWS V14.01,2013-09-22 18:32:00,
2013-09-22 14:37:00,90.1,64.0,29.91,SW,225,3.1,7.6,42,0.00,,---,0.00,VWS V14.01,2013-09-22 18:37:00,
2013-09-22 14:42:00,90.1,63.3,29.91,SSE,158,6.5,6.5,41,0.00,,---,0.00,VWS V14.01,2013-09-22 18:42:00,
2013-09-22 14:47:00,90.1,64.0,29.91,NNW,338,7.4,7.4,42,0.00,,---,0.00,VWS V14.01,2013-09-22 18:47:00,
2013-09-22 14:54:00,90.5,65.0,29.91,WSW,248,6.5,6.7,43,0.00,,---,0.00,VWS V14.01,2013-09-22 18:54:00,
2013-09-22 14:59:00,90.1,64.0,29.91,SSW,202,4.7,7.4,42,0.00,,---,0.00,VWS V14.01,2013-09-22 18:59:00,
2013-09-22 15:05:00,90.1,64.0,29.91,SSW,202,4.7,4.7,42,0.00,,---,0.00,VWS V14.01,2013-09-22 19:05:00,
2013-09-22 15:10:00,89.8,64.3,29.91,South,180,7.2,7.2,43,0.00,,---,0.00,VWS V14.01,2013-09-22 19:10:00,
2013-09-22 15:15:00,89.8,64.3,29.91,SW,225,6.0,6.0,43,0.00,,---,0.00,VWS V14.01,2013-09-22 19:15:00,
2013-09-22 15:20:00,90.1,65.3,29.91,WSW,248,5.6,5.6,44,0.00,,---,0.00,VWS V14.01,2013-09-22 19:20:00,
2013-09-22 15:25:00,90.3,64.8,29.91,WNW,292,1.6,3.1,43,0.00,,---,0.00,VWS V14.01,2013-09-22 19:25:00,
2013-09-22 15:30:00,90.5,65.6,29.91,WNW,292,3.8,3.8,44,0.00,,---,0.00,VWS V14.01,2013-09-22 19:30:00,
2013-09-22 15:35:00,90.7,65.1,29.88,SW,225,2.7,7.2,43,0.00,,---,0.00,VWS V14.01,2013-09-22 19:35:00,
2013-09-22 15:40:00,90.5,64.3,29.88,SSW,202,2.7,2.7,42,0.00,,---,0.00,VWS V14.01,2013-09-22 19:40:00,
2013-09-22 15:45:00,90.0,63.8,29.88,West,270,9.6,9.6,42,0.00,,---,0.00,VWS V14.01,2013-09-22 19:45:00,
2013-09-22 15:50:00,89.8,64.3,29.88,NNW,338,3.6,5.6,43,0.00,,---,0.00,VWS V14.01,2013-09-22 19:50:00,
2013-09-22 15:55:00,89.8,64.3,29.88,SSW,202,5.4,5.6,43,0.00,,---,0.00,VWS V14.01,2013-09-22 19:55:00,
2013-09-22 16:00:00,89.8,63.7,29.88,ESE,112,4.7,5.6,42,0.00,,---,0.00,VWS V14.01,2013-09-22 20:00:00,
2013-09-22 16:05:00,90.0,64.5,29.88,WNW,292,5.6,5.6,43,0.00,,---,0.00,VWS V14.01,2013-09-22 20:05:00,
2013-09-22 16:10:00,90.1,65.3,29.88,SW,225,3.8,3.8,44,0.00,,---,0.00,VWS V14.01,2013-09-22 20:10:00,
2013-09-22 16:15:00,90.0,63.8,29.88,NW,315,4.7,4.7,42,0.00,,---,0.00,VWS V14.01,2013-09-22 20:15:00,
2013-09-22 16:20:00,90.0,63.8,29.88,SSW,202,3.6,4.9,42,0.00,,---,0.00,VWS V14.01,2013-09-22 20:20:00,
2013-09-22 16:25:00,90.3,64.8,29.88,SE,135,2.7,4.0,43,0.00,,---,0.00,VWS V14.01,2013-09-22 20:25:00,
2013-09-22 16:30:00,90.1,64.7,29.88,SSW,202,3.1,6.5,43,0.00,,---,0.00,VWS V14.01,2013-09-22 20:30:00,
2013-09-22 16:36:00,90.0,64.5,29.88,South,180,1.6,1.6,43,0.00,,---,0.00,VWS V14.01,2013-09-22 20:36:00,
2013-09-22 16:41:00,89.8,64.3,29.88,SW,225,5.4,5.4,43,0.00,,---,0.00,VWS V14.01,2013-09-22 20:41:00,
2013-09-22 16:46:00,89.8,65.0,29.88,SE,135,2.9,2.9,44,0.00,,---,0.00,VWS V14.01,2013-09-22 20:46:00,
2013-09-22 16:51:00,90.0,65.1,29.88,West,270,5.4,5.4,44,0.00,,---,0.00,VWS V14.01,2013-09-22 20:51:00,
2013-09-22 16:56:00,89.8,65.0,29.88,SSW,202,3.4,7.8,44,0.00,,---,0.00,VWS V14.01,2013-09-22 20:56:00,
2013-09-22 17:01:00,89.2,64.5,29.88,SW,225,3.8,3.8,44,0.00,,---,0.00,VWS V14.01,2013-09-22 21:01:00,
2013-09-22 17:06:00,88.9,65.4,29.88,SSW,202,1.3,5.4,46,0.00,,---,0.00,VWS V14.01,2013-09-22 21:06:00,
2013-09-22 17:11:00,88.7,65.3,29.88,NNW,338,2.5,4.3,46,0.00,,---,0.00,VWS V14.01,2013-09-22 21:11:00,
2013-09-22 17:18:00,88.9,66.1,29.88,North,0,2.5,4.0,47,0.00,,---,0.00,VWS V14.01,2013-09-22 21:18:00,
2013-09-22 17:24:00,88.7,65.9,29.88,West,270,6.5,6.5,47,0.00,,---,0.00,VWS V14.01,2013-09-22 21:24:00,
2013-09-22 17:29:00,88.3,65.6,29.88,South,180,2.5,2.5,47,0.00,,---,0.00,VWS V14.01,2013-09-22 21:29:00,
2013-09-22 17:34:00,88.2,65.4,29.91,West,270,2.9,2.9,47,0.00,,---,0.00,VWS V14.01,2013-09-22 21:34:00,
2013-09-22 17:39:00,88.0,65.8,29.91,WSW,248,2.2,2.2,48,0.00,,---,0.00,VWS V14.01,2013-09-22 21:39:00,
2013-09-22 17:46:00,87.6,65.5,29.91,WNW,292,1.6,2.5,48,0.00,,---,0.00,VWS V14.01,2013-09-22 21:46:00,
2013-09-22 17:53:00,87.6,65.5,29.88,NNW,338,2.7,2.7,48,0.00,,---,0.00,VWS V14.01,2013-09-22 21:53:00,
2013-09-22 17:59:00,87.4,65.9,29.88,SSE,158,0.9,0.9,49,0.00,,---,0.00,VWS V14.01,2013-09-22 21:59:00,
2013-09-22 18:04:00,87.3,65.2,29.88,West,270,1.3,4.9,48,0.00,,---,0.00,VWS V14.01,2013-09-22 22:04:00,
2013-09-22 18:09:00,87.1,65.0,29.88,WNW,292,1.1,1.1,48,0.00,,---,0.00,VWS V14.01,2013-09-22 22:09:00,
2013-09-22 18:14:00,87.1,65.0,29.88,NW,315,2.5,2.7,48,0.00,,---,0.00,VWS V14.01,2013-09-22 22:14:00,
2013-09-22 18:19:00,87.1,65.0,29.91,WNW,292,2.9,2.9,48,0.00,,---,0.00,VWS V14.01,2013-09-22 22:19:00,
2013-09-22 18:25:00,86.7,64.7,29.91,SW,225,1.3,1.3,48,0.00,,---,0.00,VWS V14.01,2013-09-22 22:25:00,
2013-09-22 18:33:00,86.2,64.8,29.91,SW,225,2.0,2.0,49,0.00,,---,0.00,VWS V14.01,2013-09-22 22:33:00,
2013-09-22 18:39:00,86.0,65.2,29.88,South,180,0.0,1.1,50,0.00,,---,0.00,VWS V14.01,2013-09-22 22:39:00,
2013-09-22 18:44:00,85.8,65.6,29.88,South,180,2.7,4.9,51,0.00,,---,0.00,VWS V14.01,2013-09-22 22:44:00,
2013-09-22 18:49:00,85.8,65.6,29.88,SSE,158,2.7,2.7,51,0.00,,---,0.00,VWS V14.01,2013-09-22 22:49:00,
2013-09-22 18:54:00,85.5,65.3,29.88,SSW,202,2.2,2.2,51,0.00,,---,0.00,VWS V14.01,2013-09-22 22:54:00,
2013-09-22 19:00:00,85.3,65.7,29.88,South,180,0.0,0.0,52,0.00,,---,0.00,VWS V14.01,2013-09-22 23:00:00,
2013-09-22 19:06:00,85.1,65.5,29.88,SW,225,3.1,3.1,52,0.00,,---,0.00,VWS V14.01,2013-09-22 23:06:00,
2013-09-22 19:11:00,84.9,65.9,29.88,SW,225,3.6,4.3,53,0.00,,---,0.00,VWS V14.01,2013-09-22 23:11:00,
2013-09-22 19:16:00,84.9,66.4,29.88,WSW,248,1.3,2.5,54,0.00,,---,0.00,VWS V14.01,2013-09-22 23:16:00,
2013-09-22 19:22:00,84.7,66.8,29.91,SW,225,0.0,2.7,55,0.00,,---,0.00,VWS V14.01,2013-09-22 23:22:00,
2013-09-22 19:28:00,84.6,66.6,29.91,WSW,248,0.0,1.6,55,0.00,,---,0.00,VWS V14.01,2013-09-22 23:28:00,
2013-09-22 19:35:00,84.4,67.0,29.91,SW,225,1.1,1.1,56,0.00,,---,0.00,VWS V14.01,2013-09-22 23:35:00,
2013-09-22 19:40:00,84.2,67.3,29.91,NNE,22,0.0,0.0,57,0.00,,---,0.00,VWS V14.01,2013-09-22 23:40:00,
2013-09-22 19:45:00,84.0,67.2,29.91,SW,225,3.1,3.4,57,0.00,,---,0.00,VWS V14.01,2013-09-22 23:45:00,
2013-09-22 19:50:00,84.0,67.7,29.91,SSW,202,0.0,0.0,58,0.00,,---,0.00,VWS V14.01,2013-09-22 23:50:00,
2013-09-22 19:55:00,83.8,68.0,29.91,SSW,202,0.0,0.0,59,0.00,,---,0.00,VWS V14.01,2013-09-22 23:55:00,
2013-09-22 20:00:00,83.8,68.0,29.91,SSW,202,0.0,1.3,59,0.00,,---,0.00,VWS V14.01,2013-09-23 00:00:00,
2013-09-22 20:05:00,83.7,68.3,29.91,SSW,202,0.0,0.0,60,0.00,,---,0.00,VWS V14.01,2013-09-23 00:05:00,
2013-09-22 20:10:00,83.5,68.2,29.91,SW,225,0.0,0.0,60,0.00,,---,0.00,VWS V14.01,2013-09-23 00:10:00,
2013-09-22 20:15:00,83.5,68.2,29.91,SSE,158,0.0,0.0,60,0.00,,---,0.00,VWS V14.01,2013-09-23 00:15:00,
2013-09-22 20:20:00,83.3,68.5,29.91,SW,225,0.0,0.0,61,0.00,,---,0.00,VWS V14.01,2013-09-23 00:20:00,
2013-09-22 20:25:00,83.3,68.5,29.91,WSW,248,0.0,0.0,61,0.00,,---,0.00,VWS V14.01,2013-09-23 00:25:00,
2013-09-22 20:33:00,83.1,68.3,29.91,SSE,158,0.0,0.0,61,0.00,,---,0.00,VWS V14.01,2013-09-23 00:33:00,
2013-09-22 20:38:00,82.9,68.6,29.91,SSE,158,0.0,0.0,62,0.00,,---,0.00,VWS V14.01,2013-09-23 00:38:00,
2013-09-22 20:44:00,82.8,68.4,29.91,SSE,158,0.0,0.0,62,0.00,,---,0.00,VWS V14.01,2013-09-23 00:44:00,
2013-09-22 20:49:00,82.6,68.7,29.91,ENE,68,0.0,0.0,63,0.00,,---,0.00,VWS V14.01,2013-09-23 00:49:00,
2013-09-22 20:54:00,82.4,68.6,29.91,SE,135,0.0,0.0,63,0.00,,---,0.00,VWS V14.01,2013-09-23 00:54:00,
2013-09-22 20:59:00,82.2,68.8,29.91,SSE,158,0.0,0.0,64,0.00,,---,0.00,VWS V14.01,2013-09-23 00:59:00,
2013-09-22 21:04:00,82.2,68.8,29.91,SE,135,0.0,0.0,64,0.00,,---,0.00,VWS V14.01,2013-09-23 01:04:00,
2013-09-22 21:09:00,82.0,68.7,29.91,SE,135,0.0,0.0,64,0.00,,---,0.00,VWS V14.01,2013-09-23 01:09:00,
2013-09-22 21:16:00,81.9,68.9,29.91,ESE,112,0.0,0.0,65,0.00,,---,0.00,VWS V14.01,2013-09-23 01:16:00,
2013-09-22 21:21:00,81.7,68.8,29.91,ESE,112,0.0,0.0,65,0.00,,---,0.00,VWS V14.01,2013-09-23 01:21:00,
2013-09-22 21:27:00,81.5,69.1,29.91,ENE,68,0.0,0.0,66,0.00,,---,0.00,VWS V14.01,2013-09-23 01:27:00,
2013-09-22 21:32:00,81.3,68.9,29.91,ENE,68,0.0,0.0,66,0.00,,---,0.00,VWS V14.01,2013-09-23 01:32:00,
2013-09-22 21:37:00,81.3,69.3,29.91,ESE,112,0.0,0.0,67,0.00,,---,0.00,VWS V14.01,2013-09-23 01:37:00,
2013-09-22 21:42:00,81.1,69.2,29.91,ESE,112,0.0,0.0,67,0.00,,---,0.00,VWS V14.01,2013-09-23 01:42:00,
2013-09-22 21:47:00,81.0,69.0,29.91,ESE,112,0.0,0.0,67,0.00,,---,0.00,VWS V14.01,2013-09-23 01:47:00,
2013-09-22 21:52:00,81.0,69.4,29.91,ESE,112,0.0,0.0,68,0.00,,---,0.00,VWS V14.01,2013-09-23 01:52:00,
2013-09-22 21:57:00,80.8,69.2,29.91,ESE,112,0.0,0.0,68,0.00,,---,0.00,VWS V14.01,2013-09-23 01:57:00,
2013-09-22 22:02:00,80.6,69.1,29.91,ESE,112,0.0,0.0,68,0.00,,---,0.00,VWS V14.01,2013-09-23 02:02:00,
2013-09-22 22:07:00,80.6,69.5,29.91,ESE,112,0.0,0.0,69,0.00,,---,0.00,VWS V14.01,2013-09-23 02:07:00,
2013-09-22 22:12:00,80.4,69.3,29.91,SE,135,0.0,0.0,69,0.00,,---,0.00,VWS V14.01,2013-09-23 02:12:00,
2013-09-22 22:17:00,80.4,69.8,29.94,SE,135,0.0,0.0,70,0.00,,---,0.00,VWS V14.01,2013-09-23 02:17:00,
2013-09-22 22:22:00,80.2,69.6,29.94,SE,135,0.0,0.0,70,0.00,,---,0.00,VWS V14.01,2013-09-23 02:22:00,
2013-09-22 22:27:00,80.1,69.8,29.94,SE,135,0.0,0.0,71,0.00,,---,0.00,VWS V14.01,2013-09-23 02:27:00,
2013-09-22 22:32:00,80.1,69.8,29.94,SE,135,0.0,0.0,71,0.00,,---,0.00,VWS V14.01,2013-09-23 02:32:00,
2013-09-22 22:37:00,80.1,69.8,29.94,SE,135,0.0,0.0,71,0.00,,---,0.00,VWS V14.01,2013-09-23 02:37:00,
2013-09-22 22:42:00,79.9,69.6,29.94,SE,135,0.0,0.0,71,0.00,,---,0.00,VWS V14.01,2013-09-23 02:42:00,
2013-09-22 22:47:00,79.9,70.1,29.94,SE,135,0.0,0.0,72,0.00,,---,0.00,VWS V14.01,2013-09-23 02:47:00,
2013-09-22 22:52:00,79.7,69.9,29.94,SE,135,0.0,0.0,72,0.00,,---,0.00,VWS V14.01,2013-09-23 02:52:00,
2013-09-22 22:59:00,79.7,70.3,29.94,SE,135,0.0,0.0,73,0.00,,---,0.00,VWS V14.01,2013-09-23 02:59:00,
2013-09-22 23:04:00,79.5,70.1,29.94,SE,135,0.0,0.0,73,0.00,,---,0.00,VWS V14.01,2013-09-23 03:04:00,
2013-09-22 23:09:00,79.5,70.1,29.94,SE,135,0.0,0.0,73,0.00,,---,0.00,VWS V14.01,2013-09-23 03:09:00,
2013-09-22 23:15:00,79.3,69.9,29.94,SE,135,0.0,0.0,73,0.00,,---,0.00,VWS V14.01,2013-09-23 03:15:00,
2013-09-22 23:20:00,79.3,70.3,29.94,SE,135,0.0,0.0,74,0.00,,---,0.00,VWS V14.01,2013-09-23 03:20:00,
2013-09-22 23:25:00,79.3,70.3,29.94,SE,135,0.0,0.0,74,0.00,,---,0.00,VWS V14.01,2013-09-23 03:25:00,
2013-09-22 23:30:00,79.3,70.3,29.94,SE,135,0.0,0.0,74,0.00,,---,0.00,VWS V14.01,2013-09-23 03:30:00,
2013-09-22 23:35:00,79.2,70.2,29.97,SE,135,0.0,0.0,74,0.00,,---,0.00,VWS V14.01,2013-09-23 03:35:00,
2013-09-22 23:40:00,79.2,70.6,29.97,SE,135,0.0,0.0,75,0.00,,---,0.00,VWS V14.01,2013-09-23 03:40:00,
2013-09-22 23:45:00,79.2,70.6,29.97,SE,135,0.0,0.0,75,0.00,,---,0.00,VWS V14.01,2013-09-23 03:45:00,
2013-09-22 23:50:00,79.2,70.6,29.94,SE,135,0.0,0.0,75,0.00,,---,0.00,VWS V14.01,2013-09-23 03:50:00,
2013-09-22 23:55:00,79.0,70.4,29.94,SE,135,0.0,0.0,75,0.00,,---,0.00,VWS V14.01,2013-09-23 03:55:00,